User: anonymous   Login
Location: Tyler Bend Campground
(35.9875°N, 92.7606°W)
Time: 06:10:17
(UTC-05:00)
Language:

CZ-2C R/B - Orbit

View from above orbital plane
View from above orbital plane
View from above satellite
View from above satellite

Ground track
Ground track

The orbit data is extracted from the following two-line orbital elements,

1 36089U 09061B   17145.60415696 +.00000037 +00000-0 +20144-4 0  9992
2 36089 098.0518 148.4060 0083320 114.8533 356.0512 14.49660977398345
Epoch (UTC): 25 May 2017 14:29:59
Eccentricity: 0.0083320
inclination: 98.0518°
perigee height: 667 km
apogee height: 786 km
right ascension of ascending node: 148.4060°
argument of perigee: 114.8533°
revolutions per day: 14.49660977
mean anomaly at epoch: 356.0512°
orbit number at epoch: 39834

The dashed part of the orbit path shows where the satellite is in the earth's shadow,  

DLR